STARLINK-5674, 55465

Orbit data source: Space-Track

STARLINK-5674, 55465 is a payload satellite owned by SpaceX/Seattle (US) in LEO that was launched on Thu, 02 Feb 2023 UTC via an FALCON 9 launch vehicle from the Air Force Eastern Test Range (AFETR). Payload-class satellites include a variety of spacecraft equipped with specific instruments for various scientific and technological missions. These include communications satellites like Starlink; space stations such as the ISS; scientific satellites like the Hubble; Earth observation satellites from companies like Planet Labs, Umbra, and HawkEye 360; GPS; miniature CubeSats for education and research; and military/defense satellites.

Loading next visibility...
Identifier
55465, 2023-015S
Orbit
LEO
Country
Flag of USUS
Related business
Manufacturer
SpaceX/Seattle
Mission
Operational Commercial Communications
Bus & Motor
STARLINK, Unknown motor
Mass
305 kg wet, ~290 kg dry
Launch date (UTC)
2023-02-02 (3 years ago)
Launch vehicle
FALCON 9
Launch site
Air Force Eastern Test Range (AFETR)
Object type
Payload
Rocket body
Debris
Shape & HBR
Box + 1 Pan, 10.1 m
Radar Cross Section
13.562 m², Large (>1 m²)

Expand to show TLE details & history
Last TLE update: 1 day ago

TLE from 1 day ago
0 STARLINK-5674
1 55465U 23015S   25302.31965027 -.00000332  00000-0 -94678-5 0  9990
2 55465  43.0037 319.7239 0001346 270.2219  89.8469 15.02531500150995
Epoch: 2025-10-29T07:40Z
TLE epoch observation values (Epoch: 2025-10-29T07:40:17.783Z)
Latitude
-0.00002°
Longitude
166.75529°
Altitude
558.869 km
Speed
7.584 km/s
True Right ascension
21h 18m 53s
True Declination
0° 00' 00"
Sunlit
Object was in daylight at epoch
Visualization orbit readout
Latitude
Unknown
Longitude
Unknown
Altitude
Unknown
Speed
Unknown
Apparent Right ascension
Unknown
Apparent Declination
Unknown
Sunlit
N/A
Visualization observer readout
Local Sidereal Time
11:53:26
Azimuth
Unknown
Elevation
Unknown
Doppler factor
Unknown
Orbital elements
Apogee altitude
561.951 km
Perigee altitude
560.083 km
Semi-major axis
6,939.154 km
Eccentricity
0.00013
Inclination
43.0037°
RAAN
319.7239°
Arg. of periapsis
270.2219°
True anomaly
89.86232°
Mean anomaly
89.8469°
Eccentric anomaly
89.85461°
Mean motion
3.75477 °/min
Orbital period
95.88 mins
BSTAR
-0.0000094678
Loading maneuver chart data...
Computing Atmospheric mass density...
Loading historical data...
Loading historical data...
Loading historical data...
Loading historical data...
Loading historical data...
Loading historical data...
Loading historical data...

Documentation

Showing up to 5 results
|